[[{"header":{"parameterUnit":"m.s-1","parameterCategory":1,"la1":30.2991,"la2":30.254,"lo1":-89.0895,"lo2":-89.0444,"dy":0.0017,"dx":0.0017,"nx":28,"ny":28,"refTime":"2025-07-19T21:00:00:Z","depth":0,"parameterNumber":2,"parameterNumberName":"U-component_of_WINDS"},"data":[0,0,0,0,0,0,0,0,0,0,0,0,0,0,0,0,0,0,0,0,0,0,0,0,0,0,0,0,0,0,0,0,0,0,0,0,0,0,0,0,0,0,0,0,0,0,0,0,0,0,0,0,0,0,0,0,0,0,0.4122,0.4124,0,0.4281,0.4282,0.4284,0.4367,0.4368,0.4368,0.4368,0.4532,0.4536,0.4541,0,0,0,0,0,0,0,0,0,0,0,0,0,0.3893,0.3897,0.4122,0.4124,0.4126,0.428,0.4282,0.4285,0.4367,0.4368,0.4368,0.4368,0.4531,0.4536,0.4541,0,0,0,0,0,0,0,0,0,0,0,0,0,0.4016,0.3898,0.4122,0.4186,0.4193,0.428,0.4283,0.4285,0.4367,0.4368,0.4368,0.4368,0.4529,0.4535,0.4542,0.4577,0,0,0.4561,0.4564,0,0,0,0,0,0,0,0,0.4009,0.4024,0.4174,0.4182,0.419,0.4304,0.4262,0.4383,0.4367,0.4301,0.4368,0.4368,0.4456,0.4469,0.4498,0.4585,0.4592,0.4562,0.4566,0.4568,0.457,0,0,0,0,0,0,0,0.4,0.4018,0.4185,0.4176,0.4186,0.4207,0.4225,0.4285,0.4376,0.4307,0.4314,0.4331,0.4461,0.4492,0.4503,0.4594,0.4562,0.4567,0.4571,0.4574,0.4719,0.4719,0,0,0,0,0,0,0.3981,0.401,0.418,0.419,0.4098,0.4211,0.4231,0.4268,0.4375,0.4392,0.4331,0.4334,0.4481,0.4495,0.4509,0.4558,0.4568,0.4574,0.4578,0.4719,0.4719,0.4719,0,0,0,0,0,0,0.3976,0.3996,0.4173,0.4102,0.4126,0.4215,0.4255,0.4271,0.4302,0.4393,0.441,0.4346,0.4482,0.45,0.456,0.4565,0.4577,0.4583,0.4719,0.4719,0.4719,0.4656,0,0,0,0,0,0,0.3969,0.3993,0.4007,0.4101,0.413,0.4221,0.4256,0.4273,0.4312,0.4318,0.4412,0.4428,0.4483,0.455,0.4566,0.4574,0.4588,0.4719,0.4719,0.4719,0.4658,0.4654,0.465,0,0,0,0,0,0.3961,0.3983,0.4007,0.4027,0.4149,0.4221,0.4237,0.43,0.4312,0.4327,0.4386,0.4425,0.4561,0.4555,0.4574,0.4584,0.4719,0.4719,0.4719,0.466,0.4655,0.465,0,0,0,0,0,0,0.3888,0.3997,0.4025,0.4078,0.4139,0.4235,0.4256,0.4292,0.4352,0.4355,0.4432,0.4452,0.4505,0.4551,0.4541,0.4624,0.4644,0.4648,0.4592,0.4588,0.4585,0.4573,0.4593,0,0,0,0,0,0.3877,0.3926,0.4019,0.4058,0.4087,0.4166,0.42,0.4243,0.431,0.4336,0.4399,0.4463,0.4521,0.4557,0.4615,0.4665,0.4687,0.4681,0.4677,0.4674,0.4676,0.4706,0.4705,0.4719,0.4719,0.4719,0,0,0.3858,0.3923,0.395,0.4045,0.4097,0.4147,0.4187,0.4238,0.4275,0.4344,0.4404,0.4453,0.4529,0.4584,0.4612,0.4624,0.4677,0.4674,0.467,0.4675,0.4706,0.4705,0.4704,0.4719,0.4719,0.4719,0,0,0.3847,0.3901,0.3939,0.3991,0.407,0.4122,0.4131,0.4221,0.4256,0.4317,0.437,0.4416,0.4513,0.4566,0.4605,0.4614,0.4652,0.4631,0.4611,0.464,0.4638,0.4638,0.4641,0.4642,0.4633,0.4633,0.4633,0,0.3812,0.3888,0.3954,0.4002,0.4043,0.4106,0.4146,0.4193,0.4287,0.4314,0.4326,0.445,0.4506,0.4574,0.4576,0.4606,0.4619,0.4621,0.4633,0.4633,0.4634,0.4638,0.4639,0.463,0.463,0.4631,0.4631,0,0.3842,0.3894,0.3916,0.4004,0.4047,0.409,0.4164,0.42,0.4239,0.429,0.4352,0.4422,0.4495,0.4514,0.4553,0.4588,0.4594,0.4618,0.464,0.4628,0.4633,0.4636,0.4626,0.4627,0.4628,0.4629,0,0,0.3789,0.3914,0.3921,0.3962,0.4054,0.4096,0.4142,0.4213,0.4243,0.4305,0.4347,0.4428,0.4451,0.4496,0.4542,0.4567,0.457,0.4589,0.4592,0.4583,0.4613,0.4593,0.4594,0.4595,0.4596,0.4596,0.4606,0,0.3791,0.3877,0.3938,0.4001,0.405,0.4112,0.4153,0.4213,0.4262,0.4312,0.4367,0.4423,0.445,0.4477,0.4504,0.4563,0.4577,0.4563,0.4635,0.4637,0.4614,0.4597,0.4577,0.4583,0.4609,0.4609,0.461,0,0.3805,0.3865,0.3933,0.402,0.4043,0.4078,0.4149,0.4195,0.4266,0.43,0.4349,0.4396,0.4449,0.4465,0.4539,0.4528,0.4561,0.4595,0.4597,0.4606,0.4622,0.4606,0.4587,0.4588,0.4614,0.4613,0.4613,0,0.376,0.3858,0.3911,0.3945,0.4047,0.4071,0.4115,0.4186,0.4225,0.4287,0.4313,0.438,0.4417,0.4468,0.4532,0.4538,0.4599,0.4621,0.4629,0.4628,0.464,0.4638,0.4625,0.466,0.466,0.466,0.466,0,0.3756,0.3795,0.3892,0.3925,0.3971,0.4041,0.4084,0.4134,0.4196,0.424,0.4297,0.4337,0.4419,0.447,0.452,0.4574,0.459,0.4619,0.4632,0.4614,0.461,0.4637,0.4638,0.466,0.466,0.466,0.466,0,0.3713,0.378,0.3842,0.3934,0.3959,0.3988,0.4068,0.4102,0.4154,0.4209,0.4226,0.4308,0.437,0.4439,0.4524,0.4558,0.4608,0.4627,0.4584,0.4591,0.4596,0.4595,0.46,0.4605,0.4635,0.4635,0.4635,0,0.3706,0.3738,0.3833,0.3866,0.3909,0.3962,0.4002,0.4072,0.4112,0.4195,0.4219,0.4286,0.4342,0.4439,0.4506,0.4572,0.4593,0.459,0.4603,0.4584,0.4593,0.459,0.4594,0.4586,0.4586,0.4585,0.4585,0,0.3687,0.3718,0.3774,0.3841,0.3887,0.3943,0.4002,0.4026,0.4108,0.415,0.4214,0.4258,0.4345,0.441,0.4484,0.453,0.4571,0.458,0.4586,0.4567,0.4541,0.4556,0.4574,0.458,0.458,0.458,0.4581,0.4581,0.3662,0.3693,0.3765,0.3825,0.3877,0.393,0.3967,0.4024,0.4078,0.4154,0.4193,0.4256,0.4327,0.443,0.4475,0.4526,0.454,0.4547,0.455,0.455,0.4546,0.4533,0.454,0.454,0.4541,0.4541,0.4541,0,0.3646,0.3695,0.375,0.383,0.3877,0.3912,0.3979,0.4016,0.4071,0.4133,0.4188,0.4261,0.4325,0.4398,0.4466,0.4493,0.4514,0.4508,0.4507,0.4517,0.453,0.4518,0.4491,0.4491,0.4491,0.4491,0.4491,0.4491,0.3643,0.3697,0.3737,0.3818,0.3868,0.393,0.3965,0.4015,0.4065,0.4145,0.4198,0.4245,0.4311,0.4385,0.4445,0.4465,0.4488,0.4477,0.4502,0.4512,0.4516,0.452,0.451,0.4481,0.4481,0.4486,0.4486,0.4486]},{"header":{"parameterUnit":"m.s-1","parameterCategory":1,"la1":30.2991,"la2":30.254,"lo1":-89.0895,"lo2":-89.0444,"dy":0.0017,"dx":0.0017,"nx":28,"ny":28,"refTime":"2025-07-19T21:00:00:Z","depth":0,"parameterNumber":3,"parameterNumberName":"V-component_of_WINDS"},"data":[0,0,0,0,0,0,0,0,0,0,0,0,0,0,0,0,0,0,0,0,0,0,0,0,0,0,0,0,0,0,0,0,0,0,0,0,0,0,0,0,0,0,0,0,0,0,0,0,0,0,0,0,0,0,0,0,0,0,5.0504,5.0503,0,5.0471,5.047,5.047,5.0441,5.0441,5.044,5.044,5.0402,5.0402,5.0401,0,0,0,0,0,0,0,0,0,0,0,0,0,5.054,5.054,5.0504,5.0503,5.0503,5.0471,5.047,5.047,5.0441,5.0441,5.044,5.044,5.0403,5.0402,5.0401,0,0,0,0,0,0,0,0,0,0,0,0,0,5.0517,5.0539,5.0504,5.0485,5.0483,5.0471,5.047,5.047,5.0441,5.0441,5.044,5.044,5.0403,5.0402,5.0401,5.0404,0,0,5.0398,5.0397,0,0,0,0,0,0,0,0,5.0519,5.0516,5.0488,5.0486,5.0484,5.046,5.0469,5.0447,5.0441,5.0457,5.044,5.044,5.0422,5.0419,5.0414,5.0402,5.04,5.0398,5.0397,5.0396,5.0396,0,0,0,0,0,0,0,5.052,5.0517,5.049,5.0488,5.0485,5.0477,5.0473,5.0465,5.0442,5.0455,5.0453,5.045,5.042,5.0415,5.0413,5.04,5.0398,5.0397,5.0396,5.0396,5.039,5.039,0,0,0,0,0,0,5.0525,5.0519,5.0492,5.0489,5.0501,5.0477,5.0473,5.0468,5.0442,5.0438,5.045,5.0449,5.0417,5.0414,5.0411,5.0414,5.0396,5.0395,5.0395,5.039,5.039,5.0391,0,0,0,0,0,0,5.0526,5.0523,5.0493,5.0504,5.0499,5.0477,5.0471,5.0467,5.0462,5.0438,5.0434,5.0449,5.0416,5.0413,5.0406,5.0412,5.0395,5.0394,5.0389,5.039,5.039,5.0418,0,0,0,0,0,0,5.0527,5.0523,5.0525,5.0504,5.0499,5.0489,5.0472,5.0467,5.046,5.0458,5.0436,5.0432,5.0416,5.0408,5.0405,5.041,5.0393,5.0388,5.0389,5.039,5.0417,5.042,5.0422,0,0,0,0,0,5.0529,5.0533,5.0525,5.0522,5.05,5.049,5.0487,5.0469,5.0461,5.0462,5.0447,5.0433,5.0412,5.0408,5.0404,5.0409,5.0388,5.0389,5.039,5.0415,5.0419,5.0422,0,0,0,0,0,0,5.0553,5.053,5.0521,5.0519,5.0507,5.0485,5.0485,5.0473,5.0463,5.0461,5.0438,5.0433,5.043,5.0418,5.0414,5.0411,5.0398,5.0398,5.0418,5.0422,5.0425,5.0427,5.0392,0,0,0,0,0,5.0559,5.0554,5.0533,5.0533,5.0527,5.0508,5.0502,5.049,5.0476,5.0471,5.0455,5.0442,5.0432,5.0426,5.0416,5.0415,5.041,5.0417,5.0419,5.0422,5.0422,5.0422,5.0425,5.0394,5.0394,5.0394,0,0,5.057,5.0556,5.0554,5.0537,5.0527,5.0521,5.0503,5.0498,5.0493,5.0469,5.0463,5.0452,5.0435,5.0432,5.0429,5.0422,5.043,5.0423,5.0426,5.0425,5.0423,5.0426,5.0429,5.0395,5.0395,5.0395,0,0,5.0586,5.0576,5.0575,5.0565,5.055,5.0537,5.0537,5.0518,5.0509,5.0503,5.0486,5.0479,5.0463,5.0453,5.0445,5.046,5.0446,5.0457,5.0472,5.0471,5.0474,5.0476,5.0481,5.0484,5.0458,5.0458,5.0458,0,5.0601,5.0593,5.0576,5.0572,5.0565,5.0545,5.0545,5.0535,5.0517,5.0513,5.0505,5.0486,5.0473,5.0468,5.0471,5.0466,5.0465,5.0459,5.0475,5.0477,5.0478,5.0484,5.0486,5.0459,5.0459,5.0459,5.0459,0,5.0612,5.0607,5.0608,5.0593,5.0586,5.0584,5.0566,5.0561,5.055,5.0538,5.0532,5.0517,5.0504,5.0501,5.0489,5.0494,5.049,5.0479,5.0466,5.0483,5.0488,5.0489,5.0461,5.0461,5.046,5.046,0,0,5.0643,5.0619,5.062,5.0613,5.0596,5.0591,5.0588,5.0576,5.0573,5.0561,5.0558,5.0546,5.0536,5.0528,5.0515,5.0514,5.0528,5.0503,5.0503,5.0509,5.0533,5.0542,5.0544,5.0519,5.0519,5.052,5.0535,0,5.0657,5.0651,5.0636,5.0634,5.0629,5.0611,5.0608,5.0597,5.0586,5.058,5.0567,5.0559,5.0547,5.0542,5.0541,5.0527,5.0533,5.0525,5.0515,5.0515,5.052,5.0546,5.0555,5.057,5.0536,5.0537,5.0537,0,5.0672,5.0663,5.0662,5.0646,5.0643,5.0641,5.063,5.0624,5.0611,5.0603,5.0595,5.0581,5.0576,5.0565,5.0558,5.0554,5.0549,5.0542,5.0542,5.054,5.0527,5.0545,5.0574,5.0576,5.0539,5.0539,5.0539,0,5.0695,5.0682,5.068,5.0675,5.0656,5.0655,5.0647,5.0634,5.0628,5.0619,5.0615,5.0604,5.0599,5.0591,5.0574,5.0567,5.057,5.0556,5.0563,5.0563,5.0563,5.0564,5.0592,5.0561,5.0561,5.056,5.056,0,5.0712,5.0712,5.0691,5.0689,5.0689,5.0672,5.0671,5.0661,5.065,5.0646,5.0629,5.0626,5.0605,5.0599,5.0586,5.0583,5.058,5.0573,5.057,5.0575,5.0576,5.0571,5.0569,5.0561,5.0561,5.0561,5.0561,0,5.0737,5.0723,5.0719,5.0702,5.0698,5.0699,5.0684,5.0682,5.067,5.0666,5.0664,5.0645,5.0638,5.0621,5.0608,5.06,5.06,5.0593,5.0605,5.0602,5.061,5.061,5.0636,5.0639,5.0606,5.0606,5.0607,0,5.0749,5.0748,5.0732,5.0729,5.0722,5.0717,5.0712,5.0695,5.0691,5.0677,5.0677,5.0668,5.066,5.0649,5.0634,5.0624,5.0618,5.0628,5.0616,5.0622,5.0618,5.0619,5.0619,5.063,5.0631,5.0631,5.0631,0,5.0771,5.0765,5.0759,5.0751,5.0746,5.0738,5.0729,5.0728,5.0709,5.0705,5.0697,5.0692,5.068,5.0672,5.066,5.0651,5.0638,5.0636,5.0637,5.0641,5.0648,5.0645,5.0612,5.0635,5.0634,5.0634,5.0634,5.0634,5.079,5.0789,5.0778,5.0772,5.0765,5.0758,5.0755,5.0745,5.0739,5.0729,5.0719,5.0713,5.0701,5.0685,5.0677,5.0671,5.0665,5.0666,5.0666,5.0667,5.067,5.065,5.0669,5.0669,5.0669,5.0669,5.0669,0,5.0812,5.0805,5.0799,5.0789,5.0784,5.0774,5.0765,5.0762,5.0757,5.0747,5.0741,5.0733,5.0725,5.0711,5.0702,5.07,5.0694,5.0699,5.0698,5.0697,5.0676,5.0676,5.0704,5.0704,5.0704,5.0704,5.0704,5.0704,5.0823,5.0822,5.0814,5.0809,5.0801,5.0796,5.0792,5.0785,5.0778,5.077,5.0765,5.0756,5.0744,5.0735,5.0727,5.0723,5.0721,5.0727,5.0721,5.0701,5.0698,5.0695,5.0695,5.0726,5.0726,5.0742,5.0742,5.0743]}]]